Wind_Speed
8 5 4 4 9 7 6 9 11 12 12 12 12 8 14 16 22 24 22 12 11 9 8 15 12 10 13 14 12 8 9 8 14 16 18 22 22 15 14 14 17 16 16 15
7 7 4 4 7 2 8 11 11 12 15 12 14 16 20 24 24 25 25 24 19 16 14 15 16 14 12 13 11 10 11 11 11 14 14 17 19 19 18 16 16 14 16 15
4 4 10 4 5 4 8 11 8 9 5 4 12 16 17 20 21 28 30 27 28 23 21 19 20 18 10 6 7 10 11 11 12 11 15 17 22 22 17 15 15 16 19 15
4 6 7 4 6 11 11 5 6 16 6 12 11 8 18 19 24 26 31 30 29 24 27 20 22 21 11 7 5 11 10 10 15 17 16 16 14 15 14 15 15 16 20 18
2 4 6 6 5 4 9 6 8 6 8 15 19 8 12 12 18 19 24 29 30 28 31 31 24 15 16 16 12 10 11 12 16 19 18 17 15 13 14 15 18 19 20 21
10 8 11 10 5 7 2 11 12 7 5 7 22 16 24 13 8 14 18 26 27 30 27 27 30 27 21 21 13 15 14 14 14 15 16 14 13 10 13 17 19 20 19 21
5 6 7 10 7 6 11 11 3 1 2 9 5 10 23 17 14 13 10 15 14 28 23 21 22 28 26 19 14 14 17 17 18 15 14 15 14 16 17 17 19 19 19 21
16 15 9 12 9 10 8 9 5 5 4 6 9 10 10 11 14 15 10 17 11 18 14 21 30 36 26 29 25 19 18 17 18 22 21 21 26 20 17 22 18 19 22 24
15 20 15 13 7 4 4 6 10 9 14 4 7 11 15 18 13 10 12 13 18 24 28 25 28 30 29 21 18 22 21 21 24 26 26 29 26 25 10 11 18 24 24 24
30 21 15 8 7 1 5 5 5 4 2 4 6 9 15 11 8 16 13 13 5 10 12 16 20 23 25 20 21 22 21 26 29 30 30 31 16 19 17 20 23 25 26 22
11 17 6 4 2 0 1 9 6 5 3 2 3 5 9 14 13 17 17 17 12 8 13 16 21 26 25 26 26 23 29 32 30 41 23 19 22 23 25 26 26 24 21 18
1 2 3 6 11 6 4 12 11 6 5 5 3 7 12 10 11 14 17 17 17 14 13 16 16 17 23 27 27 26 27 29 21 18 24 23 25 26 29 30 18 13 13 15
5 5 3 3 4 4 10 11 10 10 9 13 3 7 11 6 4 10 18 20 19 19 20 21 20 17 18 19 22 23 24 25 26 24 24 26 29 32 24 14 12 14 15 16
1 3 3 3 3 7 9 10 16 18 13 15 20 22 16 17 14 16 17 20 18 15 15 18 20 26 24 22 23 23 24 25 27 29 31 31 22 14 14 15 17 17 15 14
2 4 3 5 7 12 15 17 18 22 19 16 23 25 16 21 19 19 20 21 20 19 20 21 19 20 22 18 18 21 25 26 22 17 13 12 13 14 16 17 15 12 11 11
10 10 15 17 18 19 21 20 20 21 20 24 18 21 18 18 23 22 21 22 22 21 22 17 13 12 12 19 19 18 18 12 9 11 13 15 14 15 14 12 11 11 13 12
22 19 19 16 15 17 19 15 15 16 22 16 11 10 11 15 14 18 19 15 17 20 18 17 15 13 7 9 9 10 11 11 16 16 17 17 16 15 15 15 14 14 15 16
14 14 15 16 16 3 12 12 17 13 12 12 12 14 7 6 7 10 13 16 20 22 18 14 14 9 8 7 12 13 13 15 14 16 14 14 15 16 17 17 17 18 18 16
8 13 9 7 12 15 14 15 13 12 15 16 17 10 2 4 7 8 13 18 21 20 17 14 14 12 11 14 16 15 14 13 13 10 11 13 16 18 19 19 17 15 12 12
12 14 11 10 7 5 11 11 12 12 16 16 11 7 10 12 14 6 11 6 15 18 15 15 15 10 9 16 13 14 12 11 9 9 12 15 16 16 16 15 13 12 11 11
10 11 12 12 12 9 13 12 16 12 17 14 11 10 9 8 8 7 9 9 10 14 16 16 13 9 13 12 12 12 11 9 8 8 10 9 9 9 9 10 10 10 9 9
13 10 12 8 6 7 10 10 14 15 16 14 14 16 18 8 6 8 11 10 11 15 16 17 13 13 13 11 11 10 11 8 6 7 7 8 8 6 6 7 8 9 9 9
12 8 14 12 13 15 18 18 20 16 18 21 23 18 3 10 3 10 11 11 13 15 14 15 14 14 14 12 10 10 10 9 7 4 4 5 5 6 6 8 9 9 8 7
22 19 17 19 20 17 17 19 21 18 19 24 18 4 11 7 4 3 8 10 11 15 8 17 16 12 13 14 11 12 10 7 6 5 6 6 6 7 9 9 9 9 9 8
19 21 19 19 21 22 22 19 18 15 19 12 11 9 7 7 5 6 11 14 10 10 10 14 13 14 12 15 13 12 10 11 11 10 10 9 9 9 10 9 9 9 9 8
26 21 21 22 21 23 24 22 20 20 19 17 12 11 7 7 8 10 11 11 11 9 9 14 15 13 12 14 14 15 16 16 14 13 13 13 11 10 10 9 10 9 9 10
Wind_Direction
223 237 258 305 55 200 295 262 257 283 257 246 276 282 249 276 254 246 247 242 246 253 249 247 247 268 286 298 305 262 244 237 227 215 207 208 212 218 235 225 222 235 242 251
223 244 238 51 6 246 244 247 263 269 287 258 288 281 265 266 258 255 249 255 247 232 241 242 241 254 280 291 289 249 226 231 231 236 225 215 216 229 233 237 245 242 253 266
191 102 154 77 349 306 345 269 295 274 320 289 300 285 256 261 251 245 231 246 242 230 239 246 244 257 259 280 294 241 220 223 227 220 221 214 216 230 240 248 251 251 253 266
84 162 159 86 350 316 312 32 348 266 250 261 247 273 285 264 250 245 245 248 240 244 234 238 249 250 240 248 253 226 212 217 219 224 226 226 231 237 242 245 253 251 249 252
248 290 323 306 358 250 309 344 6 323 251 238 240 256 291 292 252 261 253 235 236 237 228 233 243 241 235 241 240 234 200 203 211 225 230 233 239 242 243 245 251 253 250 259
293 302 308 321 327 353 318 277 288 259 211 248 255 229 287 290 283 266 261 251 245 230 237 239 234 237 235 222 206 207 197 198 214 223 231 240 240 238 237 237 246 257 262 264
313 293 300 294 260 256 268 260 281 15 206 230 252 213 272 275 277 261 276 226 236 219 242 256 245 245 245 235 207 219 217 221 224 233 236 237 233 233 240 246 248 257 270 273
283 299 300 309 274 284 304 251 239 228 206 250 271 237 256 274 266 258 250 217 219 208 228 234 212 238 248 228 218 215 230 231 234 237 248 249 244 232 239 248 263 270 273 283
261 273 313 272 248 257 293 248 304 271 271 260 252 270 273 280 265 253 236 235 225 226 225 252 233 217 219 230 226 223 230 236 241 247 252 250 256 229 281 290 283 284 283 293
255 258 267 233 241 243 268 309 302 296 258 266 266 281 275 275 268 243 236 201 214 250 212 204 214 224 226 242 237 237 235 237 244 245 249 260 271 282 290 288 285 285 289 287
246 245 216 246 22 114 330 50 19 338 293 229 315 286 296 286 244 240 231 209 204 209 225 221 226 228 235 239 246 249 248 251 249 261 265 288 277 281 286 289 287 286 281 275
198 237 234 297 313 242 298 13 1 345 283 271 255 279 330 306 226 219 225 227 209 214 238 245 240 247 248 252 264 265 265 270 270 265 262 274 278 285 289 293 285 275 271 272
264 250 251 272 289 210 309 331 350 345 305 285 230 276 312 304 259 222 230 235 225 233 245 230 246 247 251 249 257 258 262 269 271 269 274 280 282 285 284 272 277 279 278 279
168 154 149 204 248 300 308 313 321 331 327 318 295 303 261 261 250 232 234 237 236 247 234 229 236 231 234 233 238 247 255 263 267 272 272 275 272 263 269 275 276 273 275 279
242 236 268 295 313 310 305 307 313 319 320 300 294 297 298 260 261 235 230 232 237 241 244 249 251 234 238 239 246 256 259 260 261 258 249 252 260 263 266 268 270 272 277 282
282 287 292 301 300 295 294 300 302 307 307 308 287 282 296 272 257 238 236 238 241 246 253 257 249 217 203 251 235 243 242 232 230 244 252 253 257 261 263 262 264 273 280 280
282 284 292 289 306 301 293 291 296 297 300 298 290 297 287 274 236 223 254 241 262 259 258 253 237 223 232 244 221 216 221 239 243 247 253 259 260 258 256 259 264 270 273 276
286 281 282 282 290 251 292 297 304 302 276 287 307 308 295 210 219 230 239 254 260 263 247 220 216 256 250 246 249 245 241 243 245 247 247 251 252 257 259 263 267 268 272 278
318 326 315 277 270 274 277 289 286 282 290 295 290 273 226 227 229 260 269 260 258 255 255 256 241 231 216 233 244 250 244 247 246 246 257 261 261 260 260 261 265 264 254 252
310 313 313 299 273 240 291 290 282 289 281 293 268 279 294 289 308 284 253 263 240 239 234 217 226 212 237 248 241 247 247 246 251 261 266 263 260 261 257 254 246 237 234 252
301 299 291 296 291 290 295 281 293 283 294 281 246 258 250 261 299 300 299 282 245 216 223 206 203 221 228 237 245 243 239 237 248 267 267 253 246 244 242 238 234 233 246 259
300 294 283 272 282 284 283 297 297 295 283 280 257 260 245 251 251 273 268 265 231 196 202 201 212 217 231 238 247 241 239 240 259 272 251 238 239 251 255 244 239 242 252 257
286 292 298 289 278 284 288 301 291 285 285 278 273 247 241 227 246 278 268 281 227 218 215 212 216 222 234 254 249 249 246 245 246 267 295 299 309 297 274 258 247 244 249 254
279 287 290 293 295 296 294 300 296 289 272 288 251 243 203 255 295 301 252 249 231 219 244 234 239 226 244 254 251 249 247 258 281 299 318 308 306 291 273 262 253 251 255 255
276 286 286 289 294 295 295 287 287 270 288 264 209 222 240 253 273 307 242 248 258 226 249 228 244 239 241 236 253 257 258 263 270 276 275 276 273 278 271 264 266 271 266 257
273 278 281 287 296 294 296 294 291 270 261 252 230 222 219 242 283 287 271 252 268 274 255 239 244 247 242 240 254 256 253 254 263 266 267 272 275 276 270 271 268 266 249 252
Height
3188 3188 3187 3187 3187 3187 3186 3186 3187 3188 3187 3188 3187 3186 3186 3183 3182 3182 3184 3186 3187 3188 3190 3192 3194 3198 3199 3200 3201 3201 3202 3202 3201 3202 3204 3206 3208 3209 3210 3211 3212 3211 3210 3211
3188 3187 3187 3187 3186 3184 3185 3185 3186 3187 3186 3186 3185 3183 3182 3179 3174 3177 3181 3183 3185 3187 3187 3189 3191 3193 3195 3198 3199 3199 3199 3199 3201 3202 3203 3204 3205 3205 3206 3207 3208 3209 3207 3209
3187 3189 3188 3188 3187 3186 3188 3188 3188 3188 3185 3185 3185 3180 3175 3174 3174 3176 3178 3180 3181 3183 3184 3186 3188 3190 3194 3195 3197 3198 3198 3199 3199 3200 3201 3202 3203 3203 3204 3205 3206 3206 3207 3207
3188 3188 3189 3190 3191 3189 3189 3187 3186 3186 3187 3185 3183 3177 3170 3170 3171 3172 3174 3175 3176 3178 3179 3182 3185 3187 3190 3193 3194 3195 3196 3196 3196 3196 3198 3198 3199 3200 3201 3202 3205 3204 3203 3202
3189 3188 3188 3188 3187 3187 3186 3184 3183 3182 3183 3184 3180 3179 3166 3167 3166 3168 3169 3169 3172 3173 3174 3177 3181 3184 3187 3190 3191 3192 3192 3193 3194 3193 3194 3195 3195 3198 3199 3199 3199 3200 3200 3199
3185 3186 3184 3183 3184 3184 3184 3183 3181 3178 3180 3182 3174 3176 3163 3164 3163 3163 3162 3165 3166 3170 3172 3174 3177 3179 3181 3183 3185 3188 3189 3190 3191 3192 3193 3194 3195 3196 3195 3193 3194 3196 3196 3196
3183 3183 3183 3182 3182 3181 3179 3181 3180 3181 3181 3175 3171 3173 3161 3161 3160 3161 3160 3162 3164 3168 3169 3171 3175 3176 3178 3180 3180 3183 3185 3186 3187 3188 3189 3191 3192 3191 3191 3191 3190 3190 3191 3190
3181 3181 3180 3181 3180 3179 3178 3178 3178 3179 3178 3170 3169 3163 3157 3157 3157 3159 3159 3161 3162 3165 3171 3169 3167 3169 3174 3174 3176 3177 3181 3183 3182 3182 3183 3184 3182 3181 3179 3179 3185 3187 3188 3187
3178 3178 3179 3178 3178 3178 3176 3176 3175 3173 3170 3169 3163 3159 3156 3154 3156 3158 3158 3159 3160 3161 3164 3164 3165 3169 3169 3170 3171 3175 3177 3177 3175 3176 3176 3176 3173 3165 3177 3179 3181 3184 3184 3182
3175 3176 3177 3176 3175 3175 3173 3173 3172 3170 3169 3166 3160 3157 3154 3151 3152 3153 3154 3157 3159 3159 3162 3163 3165 3167 3168 3166 3166 3169 3171 3171 3173 3175 3174 3171 3155 3168 3173 3176 3178 3177 3176 3176
3170 3175 3176 3175 3174 3174 3174 3172 3171 3168 3167 3165 3165 3154 3152 3150 3148 3149 3153 3156 3158 3159 3159 3161 3163 3164 3164 3162 3163 3166 3167 3166 3167 3134 3168 3165 3166 3167 3171 3172 3171 3171 3171 3171
3173 3172 3172 3173 3173 3173 3172 3170 3168 3166 3165 3161 3161 3156 3151 3149 3146 3146 3149 3152 3153 3155 3155 3155 3156 3156 3157 3157 3158 3159 3160 3157 3159 3157 3165 3164 3165 3162 3163 3165 3166 3166 3167 3168
3170 3169 3170 3170 3172 3170 3169 3168 3166 3164 3161 3158 3156 3154 3152 3150 3147 3146 3146 3148 3150 3152 3152 3153 3153 3154 3154 3155 3154 3154 3156 3157 3157 3162 3162 3161 3160 3159 3159 3162 3163 3163 3164 3163
3168 3167 3168 3168 3167 3166 3165 3165 3163 3161 3160 3157 3154 3151 3147 3146 3146 3144 3143 3144 3144 3145 3146 3147 3147 3148 3149 3151 3153 3154 3154 3155 3155 3156 3156 3155 3154 3155 3157 3159 3160 3160 3160 3159
3166 3165 3165 3164 3163 3162 3161 3160 3159 3156 3154 3152 3149 3146 3144 3142 3141 3141 3142 3141 3141 3142 3143 3143 3143 3144 3146 3149 3151 3153 3153 3152 3152 3151 3152 3151 3152 3154 3155 3156 3156 3156 3155 3156
3163 3162 3161 3160 3160 3159 3156 3155 3153 3150 3149 3145 3141 3139 3139 3137 3137 3138 3138 3138 3139 3140 3141 3141 3140 3141 3143 3145 3146 3146 3147 3147 3148 3149 3149 3150 3150 3151 3152 3153 3153 3153 3153 3154
3159 3157 3156 3154 3154 3153 3151 3149 3147 3145 3143 3141 3138 3135 3133 3131 3131 3134 3136 3137 3138 3137 3136 3137 3139 3139 3140 3141 3141 3143 3144 3144 3146 3146 3147 3147 3148 3149 3149 3149 3149 3149 3150 3150
3152 3152 3151 3148 3148 3149 3147 3144 3142 3140 3139 3138 3136 3133 3130 3129 3130 3133 3134 3134 3134 3133 3132 3133 3135 3137 3137 3139 3141 3141 3140 3141 3141 3143 3143 3144 3145 3145 3144 3143 3144 3145 3145 3145
3149 3148 3146 3145 3144 3143 3143 3140 3139 3136 3136 3135 3133 3132 3130 3131 3130 3130 3130 3131 3131 3130 3130 3131 3132 3133 3134 3136 3139 3139 3139 3139 3139 3139 3140 3141 3141 3140 3140 3139 3140 3141 3141 3142
3146 3145 3145 3143 3141 3139 3138 3138 3135 3134 3132 3132 3131 3130 3130 3130 3129 3129 3128 3127 3126 3125 3126 3127 3129 3130 3132 3135 3135 3136 3136 3136 3136 3136 3137 3138 3138 3136 3135 3136 3137 3138 3138 3138
3143 3142 3141 3139 3137 3136 3135 3134 3132 3132 3133 3128 3128 3127 3129 3127 3129 3128 3126 3125 3123 3123 3124 3126 3127 3129 3132 3133 3134 3135 3135 3134 3134 3134 3135 3135 3134 3133 3133 3133 3133 3134 3134 3134
3140 3139 3137 3136 3135 3134 3132 3132 3131 3129 3125 3125 3125 3124 3125 3125 3124 3123 3123 3123 3122 3121 3122 3125 3129 3130 3131 3132 3132 3132 3132 3132 3132 3132 3131 3131 3132 3131 3129 3129 3129 3129 3130 3130
3137 3137 3135 3135 3132 3131 3129 3128 3125 3123 3121 3120 3119 3121 3120 3121 3120 3120 3119 3122 3123 3123 3123 3125 3126 3127 3129 3129 3129 3130 3130 3130 3130 3130 3128 3127 3126 3126 3125 3125 3126 3127 3127 3128
3132 3130 3129 3129 3128 3126 3125 3123 3120 3118 3116 3115 3116 3116 3117 3118 3118 3118 3116 3121 3121 3122 3122 3122 3123 3124 3126 3127 3127 3126 3126 3126 3126 3125 3124 3125 3124 3124 3124 3124 3124 3124 3125 3125
3127 3126 3124 3122 3122 3120 3119 3118 3116 3113 3112 3112 3113 3113 3115 3116 3115 3115 3118 3119 3119 3119 3119 3119 3120 3120 3121 3122 3122 3122 3122 3123 3123 3123 3124 3124 3124 3123 3123 3122 3122 3122 3122 3121
3121 3120 3119 3117 3117 3115 3114 3113 3111 3110 3110 3109 3109 3110 3110 3113 3112 3114 3115 3115 3115 3115 3115 3116 3116 3116 3116 3117 3118 3119 3119 3119 3120 3121 3121 3121 3121 3121 3120 3119 3119 3118 3118 3117